User: anonymous   Login
Location: C.E.K. Mees Observatory
(42.7003°N, 77.4088°W)
Time: 18:04:45
(UTC-04:00)
Language:

Tiangong 1 - Orbit

View from above orbital plane
View from above orbital plane
View from above satellite
View from above satellite

Ground track
Ground track

The orbit data is extracted from the following two-line orbital elements,

1 37820U 11053A   17292.32137731  .00032383  85160-5  11980-3 0  9994
2 37820  42.7557 155.5919 0020492 248.5645  91.3179 15.88368449347637
Epoch (UTC): 19 October 2017 07:42:47
Eccentricity: 0.0020492
inclination: 42.7557°
perigee height: 293 km
apogee height: 320 km
right ascension of ascending node: 155.5919°
argument of perigee: 248.5645°
revolutions per day: 15.88368449
mean anomaly at epoch: 91.3179°
orbit number at epoch: 34763

The dashed part of the orbit path shows where the satellite is in the earth's shadow,  

DLR